Location: Amsterdam
(30.7274°N, 84.4357°W)
Time: 22:12:45
(UTC+00:00)

Explorer 11/Cluster Stage 4 - Pass Details

Date: 17 February 2026
Orbit: 463 x 1176 km, 28.8° (Epoch: 9 March)

Event Time Altitude Azimuth Distance (km) Brightness Sun altitude
Rises 00:16:00 0° 266° (W) 2,549 11.4 -11.3°
Reaches altitude 10° 00:18:29 10° 249° (WSW) 1,732 9.7 -11.8°
Maximum altitude 00:21:29 21° 200° (SSW) 1,285 8.0 -12.4°
Drops below altitude 10° 00:24:50 10° 151° (SSE) 1,964 8.4 -13.2°
Enters shadow 00:26:45 - 140° (SE) 2,608 8.9 -13.6°
Sets 00:27:52 0° 135° (SE) 3,011 - -13.8°
